Regional Weather Roundup
Issued by NWS Grand Forks, ND

Home | Current Version | Previous Version | Graphics & Text | Print | Product List | Glossary On
Versions: 1 2 3 4 5 6 7 8 9 10 11 12 13 14 15 16 17 18 19 20 21 22 23 24 25 26 27 28 29 30 31 32 33 34 35 36 37 38 39 40 41 42 43 44 45 46 47 48 49 50
000
ASUS43 KFGF 041831
RWRFGF
PRAIRIE TO PINES  WEATHER ROUNDUP
NATIONAL WEATHER SERVICE EASTERN NORTH DAKOTA/GRAND FORKS ND
100 PM CDT SAT JUL 04 2015

 **SATELLITE DATA USED TO AUGMENT SKY COVER AT AUTOMATED STATIONS**
 *****  WEATHER ACROSS EASTERN NORTH DAKOTA  *****

CITY           SKY/WX    TMP DP  RH WIND       PRES   REMARKS
GRAND FORKS    CLOUDY    82  67  60 S12       29.81F HAZE
6HR MIN TEMP:  61; 6HR MAX TEMP:  82;

GRAND FRKS AFB SUNNY     82  68  62 S10       29.81F
GRAND FRKS NWS   N/A     82 N/A N/A S9          N/A
DEVILS LAKE    SUNNY     84  64  51 S14       29.77F
6HR MIN TEMP:  66; 6HR MAX TEMP:  84;

FARGO          MOSUNNY   82  67  60 S10G20    29.83F
WAHPETON ARPT  PTCLDY    79  64  61 S13       29.86F
$$

 ***** WEATHER ACROSS CENTRAL AND WESTERN NORTH DAKOTA  *****

CITY           SKY/WX    TMP DP  RH WIND       PRES   REMARKS
BISMARCK       SUNNY     83  68  60 SE13      29.78F
6HR MIN TEMP:  64; 6HR MAX TEMP:  83;

MINOT          SUNNY     85  64  49 S14       29.73F HAZE
6HR MIN TEMP:  68; 6HR MAX TEMP:  85;

JAMESTOWN      SUNNY     83  63  50 S16       29.81F
6HR MIN TEMP:  66; 6HR MAX TEMP:  83;

MINOT AFB      SUNNY     85  69  57 S13       29.72F
GARRISON         N/A     82  68  62 S12       29.76F
WILLISTON      SUNNY     88  64  44 SE8       29.71F
6HR MIN TEMP:  65; 6HR MAX TEMP:  88;

DICKINSON      SUNNY     85  66  53 S7        29.77F
6HR MIN TEMP:  63; 6HR MAX TEMP:  85;

HETTINGER      SUNNY     84  63  49 VRB3      29.81F
6HR MIN TEMP:  62; 6HR MAX TEMP:  84;

$$

 *****  OTHER AIRPORT OBSERVATIONS IN OUR AREA  *****

CITY           SKY/WX    TMP DP  RH WIND       PRES   REMARKS
WALHALLA       FAIR      82  68  61 MISG      29.75F HAZE
GRAFTON AIRPOR FAIR      82  66  57 S16       29.80S HAZE
VALLEY CITY AR FAIR      82  68  61 S13G18    29.83F
CANDO          FAIR      82  68  61 S16       29.77F
CAVALIER APRT  FAIR      82  68  61 S12G20    29.77F HAZE
GWINNER        FAIR      84  64  51 S12       29.84F
SHEYENNE NWR     N/A     83  69  61 S9        29.95S
ROLLA            N/A     79  68  69 S16G23    29.78S
 ***** THE ABOVE OBSERVATIONS ARE NON NWS ARE NOT QUALITY
       CONTROLLED AND MAY MIS-REPORT RAIN FOR SNOW...
$$

  *****  WEATHER ACROSS NORTHERN MINNESOTA  *****

CITY           SKY/WX    TMP DP  RH WIND       PRES   REMARKS
FLAG ISLAND    SUNNY     72  64  78 S10       29.85S
WARROAD        SUNNY     79  66  65 S8        29.85F HAZE
ROSEAU         SUNNY     81  68  65 S13       29.84F HAZE
HALLOCK        SUNNY     81  70  69 S14G20    29.79F HAZE
THF RVR FALLS  SUNNY     81  64  57 S10       29.86S
6HR MIN TEMP:  61; 6HR MAX TEMP:  81;

BAUDETTE       SUNNY     78  59  51 S12       29.87F
6HR MIN TEMP:  57; 6HR MAX TEMP:  78;

WASKISH        SUNNY     79  61  53 S8        29.89F
CROOKSTON      SUNNY     82  66  57 S15       29.84S HAZE
$$
  *****  WEATHER ACROSS CENTRAL AND WEST MINNESOTA  *****

CITY           SKY/WX    TMP DP  RH WIND       PRES   REMARKS
FOSSTON        SUNNY     79  63  57 S12G18    29.89S HAZE
BEMIDJI        SUNNY     79  62  54 S13       29.90F
PARK RAPIDS    CLOUDY    81  60  48 S9        29.91F HAZE
6HR MIN TEMP:  57; 6HR MAX TEMP:  80;

ELBOW LAKE     MOCLDY    79  67  66 S9        29.89F
WADENA         SUNNY     81  63  54 SW7       29.91F HAZE
DETROIT LAKES  SUNNY     81  63  54 S8        29.90F HAZE
MOORHEAD       SUNNY     81  66  61 S9G16     29.85F
FERGUS FALLS   SUNNY     81  66  61 S12       29.87F
MORRIS MN      SUNNY     82  66  57 S10       29.89F
STAPLES        SUNNY     81  61  50 S6        29.92S HAZE
$$
  *****  WEATHER ELSEWHERE ACROSS MINNESOTA  *****

CITY           SKY/WX    TMP DP  RH WIND       PRES   REMARKS
DULUTH         MOSUNNY   74  59  59 SE7       29.96F
6HR MIN TEMP:  61; 6HR MAX TEMP:  74;

INTRNTL FALLS  MOSUNNY   78  58  49 SW9       29.91F
6HR MIN TEMP:  53; 6HR MAX TEMP:  78;

ELY            SUNNY     77  48  36 W5        29.95S
CLOQUET        SUNNY     75  59  57 E8        29.96S
WHEATON        SUNNY     79  64  61 S12G18    29.88F
BRAINERD       CLOUDY    80  60  50 SW8       29.93F HAZE
6HR MIN TEMP:  55; 6HR MAX TEMP:  80;

HIBBING        SUNNY     78  53  41 VRB7      29.94F
6HR MIN TEMP:  53; 6HR MAX TEMP:  79;

ALEXANDRIA     MOSUNNY   79  66  64 VRB7      29.93F HAZE
6HR MIN TEMP:  64; 6HR MAX TEMP:  79;

SAINT CLOUD    MOSUNNY   81  62  52 VRB7      29.92F HAZE
6HR MIN TEMP:  65; 6HR MAX TEMP:  82;

MINNEAPOLIS    PTSUNNY   81  64  56 SW5       29.93F HAZE
6HR MIN TEMP:  66; 6HR MAX TEMP:  82;

$$

  *****  WEATHER ACROSS SOUTH DAKOTA  *****

CITY           SKY/WX    TMP DP  RH WIND       PRES   REMARKS
SIOUX FALLS    PTSUNNY   79  65  62 S10       29.94S
6HR MIN TEMP:  63; 6HR MAX TEMP:  80;

BROOKINGS      MOSUNNY   79  64  61 S13       29.94F
WATERTOWN      MOSUNNY   81  66  60 S14       29.90F
6HR MIN TEMP:  64; 6HR MAX TEMP:  81;

HURON          SUNNY     82  69  64 SE13G18   29.85F
6HR MIN TEMP:  63; 6HR MAX TEMP:  82;

SISSETON         N/A     82  64  54 S12       29.86F
ABERDEEN       SUNNY     83  70  64 S14       29.83F
6HR MIN TEMP:  63; 6HR MAX TEMP:  83;

MITCHELL       MOSUNNY   82  69  64 S15       29.89S
PIERRE         MOSUNNY   84  68  58 S16       29.80F
6HR MIN TEMP:  64; 6HR MAX TEMP:  85;

MOBRIDGE       SUNNY     84  70  62 S14       29.78F
RAPID CITY     SUNNY     86  63  45 NW5       29.84S
6HR MIN TEMP:  61; 6HR MAX TEMP:  86;

$$

  *****  SOME WEATHER IN NEARBY STATES *****

CITY           SKY/WX    TMP DP  RH WIND       PRES   REMARKS
GLASGOW MT     SUNNY     91  54  28 NW12      29.69F
6HR MIN TEMP:  64; 6HR MAX TEMP:  91;

GREAT FALLS MT SUNNY     79  52  38 NW9       29.91R
6HR MIN TEMP:  64; 6HR MAX TEMP:  80;

CHEYENNE WY    SUNNY     86  47  25 N9        30.05F
6HR MIN TEMP:  59; 6HR MAX TEMP:  86;

SCOTTSBLUFF NE SUNNY     86  64  47 SE10G17   29.92S
6HR MIN TEMP:  65; 6HR MAX TEMP:  86;

OMAHA NE       PTSUNNY   79  60  52 S12       29.99F
6HR MIN TEMP:  58; 6HR MAX TEMP:  79;

DES MOINES IA  MOSUNNY   80  59  48 S9        30.00F
6HR MIN TEMP:  63; 6HR MAX TEMP:  80;

DAVENPORT IA   SUNNY     77  62  59 W8        30.02F
6HR MIN TEMP:  58; 6HR MAX TEMP:  77;

CHICAGO IL     MOSUNNY   79  56  45 W7        30.00F
6HR MIN TEMP:  63; 6HR MAX TEMP:  80;

EAU CLAIRE WI  SUNNY     80  62  54 SW5       29.95S HAZE
6HR MIN TEMP:  62; 6HR MAX TEMP:  80;

LA CROSSE WI   SUNNY     81  59  47 SE9       29.96F
6HR MIN TEMP:  63; 6HR MAX TEMP:  81;

$$

  *****  SOME NATIONAL WEATHER *****

CITY           SKY/WX    TMP DP  RH WIND       PRES   REMARKS
LA GUARDIA NY  LGT RAIN  71  63  75 NE5       29.96R
6HR MIN TEMP:  69; 6HR MAX TEMP:  73; 6HR PCP: TRACE;

RALEIGH NC     LGT RAIN  73  72  94 SW14G29   30.00R
6HR MIN TEMP:  73; 6HR MAX TEMP:  86;

ATLANTA GA     PTSUNNY   79  68  69 W12G17    30.08F
6HR MIN TEMP:  68; 6HR MAX TEMP:  79; 6HR PCP:  0.85;

NEW ORLEANS LA PTSUNNY   92  71  50 SW14      30.04F HX  98
6HR MIN TEMP:  80; 6HR MAX TEMP:  93;

OKLAHOMA CITY  MOSUNNY   84  72  67 SE7       29.98S
6HR MIN TEMP:  71; 6HR MAX TEMP:  86; 6HR PCP: TRACE;

ALBUQUERQUE NM MOSUNNY   82  56  40 SW7       30.13F
6HR MIN TEMP:  70; 6HR MAX TEMP:  82;

SALT LAKE CITY PTSUNNY   94  47  20 S15       29.93F HX  90
6HR MIN TEMP:  79; 6HR MAX TEMP:  94; 6HR PCP: TRACE;

LOS ANGELES CA MOSUNNY   68  61  77 SW8       29.91S
6HR MIN TEMP:  63; 6HR MAX TEMP:  70;

BOISE ID       MOSUNNY   90  45  21 NW7       29.87S



USA.gov is the U.S. government's official web portal to all federal, state and local government web resources and services.